Location: City of Moscow
(46.7306°N, 116.9989°W)
Time: 02:42:12
(UTC+00:00)

USA 234 - Pass Details

Date: 13 March 2026
Orbit: 1102 x 1106 km, 123.0° (Epoch: 4 January)

Event Time Altitude Azimuth Distance (km) Brightness Sun altitude
Exits shadow 03:28:13 21° 74° (ENE) 2,271 4.4 -17.5°
Maximum altitude 03:32:14 43° 15° (NNE) 1,518 4.0 -18.2°
Drops below altitude 10° 03:38:19 10° 307° (NW) 2,971 6.6 -19.2°
Sets 03:40:55 0° 301° (WNW) 3,930 7.6 -19.6°
